Weather at Daniel K Inouye International Airport

Public forecast

Using degrees Fahrenheit for public forecast. Weather courtesy of forecast.io.

Current aviation weather report (METAR) for Daniel K Inouye International Airport

Retrieved 2020/11/28 18:53 UTC (42 minutes ago):

PHNL 281853Z 03006KT 10SM FEW030 FEW050 26/16 A3004

Aviation forecast (TAF) for Daniel K Inouye International Airport

Retrieved 2020/11/28 18:27 UTC (1 hour ago):

TAF PHNL 281725Z 2818/2924 02007KT P6SM FEW050 FM282000 03014G22KT P6SM FEW025 SCT045 FM290500 04008KT P6SM FEW025 SCT045